Flag for U.S.A. Weather past 2 weeks in El Paso, Texas, U.S.A.

69 °F


Feels Like: 69 °F
Forecast: 64 / 72 °F
Wind: 10 mph from South

Location: El Paso International Airport

Current Time: Oct 3, 2015 at 11:32:51 PM

Latest Report: Oct 3, 2015 at 10:51 PM

Visibility: 10 mi

Pressure: 29.63 "Hg (25.95 "Hg at 1142m altitude)

Humidity: 70%

Dew point: 59 °F

Location of El PasoLocation

Historic Weather in El Paso — Graph


El Paso temperature yesterday

Maximum temperature yesterday: 95 °F (at 2:51 PM)
Minimum temperature yesterday: 66 °F (at 6:51 AM)
Average temperature yesterday: 81 °F

Past Weeks' High & Low Weather Summary

High96 °F (Sep 28, 3:51 PM)93% (Sep 22, 6:51 AM)30.15 "Hg (Sep 22, 6:51 AM)
Low61 °F (Sep 27, 5:51 AM)12% (Sep 28, 3:51 PM)29.49 "Hg (Oct 3, 2:51 PM)
Average77 °F46%29.84 "Hg
* Reported Sep 18 9:51 PM — Oct 3 9:51 PM, El Paso, Weather by CustomWeather, © 2015

Note: Actual official high and low records may vary slightly from our data, if they occured in-between our weather recording intervals... More about our weather records


El Paso weather history for previous 24 hours

Time TempWeatherWind HumidityBarometerVisibility
9:51 PM
Sat, Oct 3
70 °FOvercast.14 mph61%29.60 "Hg10 mi
8:51 PM68 °FLight rain. Overcast.18 mph76%29.66 "Hg10 mi
7:51 PM68 °FThunderstorms. Overcast.15 mph73%29.62 "Hg10 mi
6:51 PM71 °FBroken clouds.9 mph61%29.62 "Hg10 mi
5:51 PM73 °FLight rain. Broken clouds.8 mph57%29.58 "Hg10 mi
4:51 PM79 °FCloudy.14 mph41%29.51 "Hg10 mi
3:51 PM74 °FThunderstorms. Mostly cloudy.15 mph53%29.53 "Hg10 mi
2:51 PM86 °FThunderstorms. Broken clouds.12 mph30%29.49 "Hg10 mi
1:51 PM87 °FThunderstorms. Partly sunny.10 mph29%29.51 "Hg10 mi
12:51 PM85 °FScattered clouds.7 mph32%29.55 "Hg10 mi
11:51 AM85 °FScattered clouds.8 mph34%29.59 "Hg10 mi
10:51 AM81 °FBroken clouds.6 mph37%29.62 "Hg10 mi
9:51 AM78 °FThunderstorms. Scattered clouds.9 mph40%29.64 "Hg10 mi
8:51 AM73 °FBroken clouds.10 mph43%29.65 "Hg10 mi
7:51 AM69 °FPartly cloudy.7 mph45%29.63 "Hg10 mi
6:51 AM67 °FPartly cloudy.6 mph49%29.62 "Hg10 mi
5:51 AM69 °FPartly cloudy.5 mph42%29.61 "Hg10 mi
4:51 AM73 °FPartly cloudy.6 mph38%29.59 "Hg10 mi
3:51 AM75 °FPassing clouds.8 mph34%29.84 "Hg10 mi
1:51 AM77 °FPassing clouds.7 mph30%29.59 "Hg10 mi
12:51 AM77 °FPassing clouds.9 mph30%29.83 "Hg10 mi
11:51 PM
Fri, Oct 2
79 °FPassing clouds.N/A26%29.84 "Hg10 mi
Weather by CustomWeather, © 2015

See weather overviewHow to use our weather pages